Location: Peebles
(55.6412°N, 3.1714°W)
Time: 19:40:24
(UTC+00:00)

Cosmos 1605 Rocket - Visible Passes

Search period start: 16 January 2022 00:00
Search period end: 26 January 2022 00:00
Orbit: 944 x 1006 km, 82.9° (Epoch: 16 January)

Date Brightness Start Highest point End Pass type
(mag) Time Alt. Az. Time Alt. Az. Time Alt. Az.
16 Jan 5.4 17:37:01 10° NNE 17:40:37 16° NE 17:41:54 15° ENE visible
16 Jan 4.1 19:21:24 10° N 19:26:36 52° NE 19:26:36 52° NE visible
16 Jan 5.5 21:07:10 10° NNW 21:11:19 31° WNW 21:11:19 31° WNW visible
17 Jan 6.5 07:17:32 10° ESE 07:21:05 16° ENE 07:24:39 10° NE visible
17 Jan 5.0 18:01:48 10° N 18:06:35 23° NE 18:07:54 21° ENE visible
17 Jan 3.9 19:46:42 10° N 19:52:38 82° NNE 19:52:38 82° NNE visible
17 Jan 6.0 21:32:59 10° NNW 21:37:21 22° WNW 21:37:21 22° WNW visible
18 Jan 6.1 07:41:03 10° SE 07:45:54 26° E 07:50:48 10° NNE visible
18 Jan 4.6 18:26:51 10° N 18:32:24 33° ENE 18:34:10 29° E visible
18 Jan 4.3 20:12:07 10° NNW 20:18:12 62° W 20:18:55 58° SW visible
18 Jan 6.5 21:59:21 10° NW 22:02:22 14° WNW 22:03:40 13° W visible
19 Jan 5.5 17:07:49 10° NNE 17:11:00 14° NE 17:14:12 10° ENE visible
19 Jan 4.1 18:52:01 10° N 18:58:02 50° ENE 19:00:53 30° SE visible
19 Jan 5.1 20:37:40 10° NNW 20:43:20 39° W 20:45:41 29° SW visible
20 Jan 6.6 06:48:49 10° ESE 06:51:51 14° ENE 06:54:53 10° NE visible
20 Jan 5.1 17:32:29 10° N 17:37:03 21° NE 17:41:37 10° ESE visible
20 Jan 3.8 19:17:17 10° N 19:23:31 78° ENE 19:28:57 14° SSE visible
20 Jan 5.9 21:03:24 10° NNW 21:08:20 25° W 21:13:17 10° SW visible
21 Jan 6.4 07:12:03 10° SE 07:16:38 23° E 07:21:14 10° NNE visible
21 Jan 4.7 17:57:29 10° N 18:02:54 30° ENE 18:08:20 10° ESE visible
21 Jan 4.2 19:42:39 10° NNW 19:48:50 70° W 19:55:05 10° S visible
21 Jan 6.5 21:29:33 10° NW 21:33:09 16° WNW 21:36:46 10° WSW visible
22 Jan 5.7 07:36:08 10° SSE 07:41:33 36° E 07:47:03 10° NNE visible
22 Jan 4.2 18:22:37 10° N 18:28:35 45° ENE 18:34:35 10° SE visible
22 Jan 5.0 20:08:10 10° NNW 20:14:01 45° W 20:19:56 10° SSW visible
23 Jan 6.8 06:20:16 10° E 06:22:37 12° ENE 06:24:59 10° NE visible
23 Jan 5.2 17:03:12 10° N 17:07:28 19° NE 17:11:46 10° E visible
23 Jan 3.9 18:47:53 10° N 18:54:06 69° ENE 19:00:23 10° SSE visible
23 Jan 5.8 20:33:50 10° NNW 20:39:02 29° W 20:44:16 10° SW visible
24 Jan 6.5 06:43:06 10° ESE 06:47:21 20° ENE 06:51:38 10° NNE visible
24 Jan 4.8 17:28:07 10° N 17:33:22 27° ENE 17:38:39 10° ESE visible
24 Jan 4.1 19:13:13 10° NNW 19:19:28 78° W 19:25:46 10° S visible
24 Jan 6.4 20:59:50 10° NW 21:03:54 18° WNW 21:08:00 10° WSW visible
25 Jan 5.9 07:07:00 10° SE 07:12:14 32° E 07:17:33 10° NNE visible
25 Jan 4.4 17:53:14 10° N 17:59:06 40° ENE 18:05:01 10° SE visible
25 Jan 4.8 19:38:41 10° NNW 19:44:41 50° W 19:50:44 10° SSW visible
25 Jan 6.9 21:26:52 10° NW 21:28:36 11° WNW 21:30:21 10° W visible
